[Date Prev][Date Next][Thread Prev][Thread Next] - [Date Index][Thread Index][Author Index]

2 LIne ISS Keps 11-26



ISS
1 25544U 98067A   03330.50613426  .00031660  00000-0  32367-3 0  8142
2 25544  51.6308 281.4709 0006062 174.5757 332.7898 15.64715687286372


----
Via the sarex mailing list at AMSAT.ORG courtesy of AMSAT-NA.
To unsubscribe, send "unsubscribe sarex" to Majordomo@amsat.org



AMSAT Top AMSAT Home